KE8URB Weather Reports


time (UTC)temp
C
wind
direction
speed
KPH
gust
KPH
rain 1hr
cm
rain 24hr
cm
rain mn
cm
humidity
%
barometer
mb
20260508085709 7 251 1.6 1.6 0.00 0.00 0.00 81 1013.4
20260508085207 7 258 1.6 3.2 0.00 0.00 0.00 79 1013.3
20260508084703 7 199 4.8 4.8 0.00 0.00 0.00 78 1013.2
20260508084200 7 254 4.8 4.8 0.00 0.00 0.00 76 1013.5
20260508083658 7 256 3.2 4.8 0.00 0.00 0.00 78 1013.5
20260508083155 6 278 9.7 12.9 0.00 0.00 0.00 80 1013.4
20260508082650 6 257 3.2 3.2 0.00 0.00 0.00 83 1013.4
20260508082147 6 248 1.6 3.2 0.00 0.00 0.00 84 1013.4
20260508081645 6 208 0.0 0.0 0.00 0.00 0.00 85 1013.8
20260508081141 6 208 0.0 0.0 0.00 0.00 0.00 85 1013.7
20260508080639 6 213 0.0 0.0 0.00 0.00 0.00 85 1013.8
20260508080137 6 229 1.6 1.6 0.00 0.00 0.00 85 1013.8
20260508075633 6 199 0.0 0.0 0.00 0.00 0.00 85 1013.8
20260508075130 6 207 0.0 1.6 0.00 0.00 0.00 85 1013.7
20260508074628 6 213 0.0 1.6 0.00 0.00 0.00 85 1013.8
20260508074124 6 209 1.6 1.6 0.00 0.00 0.00 84 1013.6
20260508073622 6 211 3.2 3.2 0.00 0.00 0.00 83 1013.6
20260508073120 6 216 0.0 0.0 0.00 0.00 0.00 84 1013.4
20260508072614 6 218 1.6 1.6 0.00 0.00 0.00 84 1013.6
20260508072112 6 247 0.0 0.0 0.00 0.00 0.00 83 1013.8
20260508071610 6 217 0.0 0.0 0.00 0.00 0.00 82 1013.5
20260508071108 6 227 1.6 1.6 0.00 0.00 0.00 81 1013.6
20260508070605 6 236 1.6 1.6 0.00 0.00 0.00 82 1013.7
20260508065600 6 245 0.0 1.6 0.00 0.00 0.00 80 1013.8
20260508065058 7 299 4.8 8.0 0.00 0.00 0.00 78 1013.9
20260508064556 7 259 6.4 8.0 0.00 0.00 0.00 77 1013.9
20260508064054 7 261 3.2 3.2 0.00 0.00 0.00 75 1013.7
20260508063551 7 282 3.2 3.2 0.00 0.00 0.00 76 1013.6
20260508063049 6 251 0.0 0.0 0.00 0.00 0.00 76 1013.7
20260508062546 6 243 0.0 0.0 0.00 0.00 0.00 76 1013.4
20260508062042 6 243 0.0 0.0 0.00 0.00 0.00 77 1013.6
20260508061540 6 243 0.0 0.0 0.00 0.00 0.00 77 1013.4
20260508061037 6 243 0.0 0.0 0.00 0.00 0.00 76 1013.7
20260508060534 6 243 0.0 0.0 0.00 0.00 0.00 75 1013.8
20260508060031 6 243 0.0 0.0 0.00 0.00 0.00 75 1013.6
20260508055526 6 243 0.0 0.0 0.00 0.00 0.00 75 1013.5
20260508055024 6 243 0.0 0.0 0.00 0.00 0.00 76 1013.7
20260508054520 6 243 0.0 0.0 0.00 0.00 0.00 75 1013.7
20260508054018 6 243 0.0 0.0 0.00 0.00 0.00 75 1014.0
20260508053514 6 243 0.0 0.0 0.00 0.00 0.00 74 1014.1
20260508053013 6 243 0.0 0.0 0.00 0.00 0.00 74 1014.0
20260508052509 6 243 0.0 0.0 0.00 0.00 0.00 75 1014.1
20260508052006 6 243 0.0 0.0 0.00 0.00 0.00 75 1014.1
20260508051502 6 243 0.0 0.0 0.00 0.00 0.00 73 1014.1
20260508050957 6 243 0.0 0.0 0.00 0.00 0.00 77 1013.8
20260508050454 6 243 0.0 0.0 0.00 0.00 0.00 77 1014.0
20260508045951 6 243 0.0 0.0 0.00 0.00 0.00 77 1014.1
20260508045448 6 243 0.0 0.0 0.00 0.00 0.00 79 1014.1
20260508044945 6 243 0.0 0.0 0.00 0.00 0.00 80 1014.2
20260508044442 6 243 0.0 0.0 0.00 0.00 0.00 80 1013.9
20260508043938 6 243 0.0 0.0 0.00 0.00 0.00 78 1014.5
20260508043436 6 243 0.0 0.0 0.00 0.00 0.00 79 1014.2
20260508042931 6 243 0.0 0.0 0.00 0.00 0.00 82 1014.2
20260508042430 6 243 0.0 0.0 0.00 0.00 0.00 84 1014.5
20260508041926 5 243 0.0 0.0 0.00 0.00 0.00 85 1014.4
20260508041423 5 243 0.0 0.0 0.00 0.00 0.00 85 1014.4
20260508040920 6 243 0.0 0.0 0.00 0.00 0.00 84 1014.2
20260508040417 6 243 0.0 0.0 0.00 0.00 0.00 82 1014.1
20260508035915 6 243 0.0 0.0 0.00 0.00 0.00 82 1013.9
20260508035411 6 242 0.0 0.0 0.00 0.00 0.00 83 1013.8
20260508034908 6 243 0.0 0.0 0.00 0.00 0.00 80 1013.8
20260508034406 6 242 0.0 0.0 0.00 0.00 0.00 79 1013.8
20260508033902 6 242 0.0 0.0 0.00 0.00 0.00 78 1013.8
20260508033400 6 242 0.0 0.0 0.00 0.00 0.00 76 1014.0
20260508032857 6 242 0.0 0.0 0.00 0.00 0.00 75 1013.9
20260508032355 7 243 0.0 0.0 0.00 0.00 0.00 73 1014.2
20260508031851 7 243 0.0 0.0 0.00 0.00 0.00 72 1014.1
20260508031348 7 243 0.0 0.0 0.00 0.00 0.00 71 1014.0
20260508030844 6 243 0.0 0.0 0.00 0.00 0.00 71 1013.9
20260508030341 6 243 0.0 0.0 0.00 0.00 0.00 71 1013.9
20260508025838 7 243 0.0 0.0 0.00 0.00 0.00 71 1013.7
20260508025335 7 243 0.0 0.0 0.00 0.00 0.00 71 1014.0
20260508024832 7 243 0.0 0.0 0.00 0.00 0.00 70 1014.0
20260508024328 7 243 0.0 0.0 0.00 0.00 0.00 70 1014.2
20260508023826 7 243 0.0 0.0 0.00 0.00 0.00 70 1014.0
20260508023322 7 243 0.0 0.0 0.00 0.00 0.00 69 1014.2
20260508022819 7 243 0.0 0.0 0.00 0.00 0.00 69 1013.8
20260508022315 7 243 0.0 0.0 0.00 0.00 0.00 69 1013.9
20260508021812 7 243 0.0 0.0 0.00 0.00 0.00 70 1014.1
20260508021308 7 243 0.0 0.0 0.00 0.00 0.00 70 1013.7
20260508020804 7 243 0.0 0.0 0.00 0.00 0.00 70 1013.9
20260508020302 7 243 0.0 0.0 0.00 0.00 0.00 69 1014.1
20260508015759 7 243 0.0 0.0 0.00 0.00 0.00 68 1013.9
20260508015256 7 243 0.0 0.0 0.00 0.00 0.00 67 1013.8
20260508014753 7 243 0.0 0.0 0.00 0.00 0.00 67 1013.9
20260508014250 7 243 0.0 0.0 0.00 0.00 0.00 69 1013.8
20260508013745 7 243 0.0 0.0 0.00 0.00 0.00 68 1013.9
20260508013242 8 243 0.0 0.0 0.00 0.00 0.00 68 1013.4
20260508012740 8 243 0.0 0.0 0.00 0.00 0.00 68 1013.8
20260508012236 8 243 0.0 0.0 0.00 0.00 0.00 66 1013.7
20260508011734 8 243 0.0 0.0 0.00 0.00 0.00 63 1013.5
20260508011232 8 243 0.0 0.0 0.00 0.00 0.00 63 1013.5
20260508010728 8 243 0.0 0.0 0.00 0.00 0.00 62 1013.5
20260508010227 9 295 0.0 0.0 0.00 0.00 0.00 64 1013.5
20260508005723 9 295 0.0 0.0 0.00 0.00 0.00 61 1013.4
20260508005220 9 295 0.0 0.0 0.00 0.00 0.00 62 1013.3
20260508004715 10 298 1.6 1.6 0.00 0.00 0.00 59 1013.3
20260508004212 10 303 0.0 0.0 0.00 0.00 0.00 59 1013.3
20260508003709 10 303 0.0 0.0 0.00 0.00 0.00 58 1013.2
20260508003206 11 296 1.6 1.6 0.00 0.00 0.00 54 1013.1
20260508002703 11 284 4.8 4.8 0.00 0.00 0.00 54 1013.2
20260508002200 11 240 1.6 1.6 0.00 0.00 0.00 56 1012.9
20260508001655 11 240 1.6 1.6 0.00 0.00 0.00 56 1013.2
20260508001152 11 257 1.6 1.6 0.00 0.00 0.00 56 1013.2
20260508000648 11 267 1.6 1.6 0.00 0.00 0.00 54 1013.0
20260508000145 12 256 1.6 3.2 0.00 0.00 0.00 52 1013.1
20260507235642 12 255 4.8 4.8 0.00 0.00 0.00 51 1013.0
20260507235139 12 260 6.4 8.0 0.00 0.00 0.00 50 1012.8
20260507234636 12 277 8.0 9.7 0.00 0.00 0.00 49 1012.7
20260507234132 12 284 3.2 4.8 0.00 0.00 0.00 50 1012.7
20260507233629 12 276 6.4 9.7 0.00 0.00 0.00 49 1012.8
20260507233128 12 259 4.8 4.8 0.00 0.00 0.00 49 1013.0
20260507232625 12 236 8.0 11.3 0.00 0.00 0.00 51 1013.0
20260507232121 12 300 12.9 16.1 0.00 0.00 0.00 49 1013.0
20260507231617 12 267 17.7 24.1 0.00 0.00 0.00 48 1012.8
20260507231115 12 278 6.4 9.7 0.00 0.00 0.00 49 1012.9
20260507230611 12 291 19.3 27.4 0.00 0.00 0.00 47 1013.0
20260507230109 12 269 14.5 17.7 0.00 0.00 0.00 49 1012.8
20260507225609 13 276 16.1 17.7 0.00 0.00 0.00 47 1012.8
20260507225106 13 261 9.7 12.9 0.00 0.00 0.00 48 1013.2
20260507224601 13 251 25.7 29.0 0.00 0.00 0.00 46 1012.9
20260507224058 13 266 20.9 27.4 0.00 0.00 0.00 47 1012.9
20260507223554 13 287 17.7 20.9 0.00 0.00 0.00 49 1012.9
20260507223051 13 266 11.3 14.5 0.00 0.00 0.00 48 1013.0
20260507222548 13 321 22.5 29.0 0.00 0.00 0.00 49 1012.9
20260507222044 13 291 27.4 32.2 0.00 0.00 0.00 48 1013.0
20260507221541 13 260 8.0 12.9 0.00 0.00 0.00 49 1012.9
20260507221038 13 280 12.9 16.1 0.00 0.00 0.00 47 1013.0
20260507220535 13 282 8.0 11.3 0.00 0.00 0.00 47 1012.9
20260507220033 13 340 9.7 14.5 0.00 0.00 0.00 49 1012.9
20260507215529 12 272 12.9 16.1 0.00 0.00 0.00 51 1012.6
20260507215027 12 290 14.5 20.9 0.00 0.00 0.00 51 1012.7
20260507214524 13 277 22.5 27.4 0.00 0.00 0.00 50 1012.5
20260507214020 13 278 17.7 24.1 0.00 0.00 0.00 51 1012.6
20260507213516 13 276 11.3 12.9 0.00 0.00 0.00 51 1012.4
20260507213013 12 271 19.3 24.1 0.00 0.00 0.00 52 1012.4
20260507212508 12 274 6.4 9.7 0.00 0.00 0.00 53 1012.1
20260507212006 13 251 16.1 27.4 0.00 0.00 0.00 53 1012.1
20260507211502 14 315 4.8 4.8 0.00 0.00 0.00 52 1011.9
20260507210959 13 256 12.9 14.5 0.00 0.00 0.00 53 1011.9
20260507210456 13 268 4.8 9.7 0.00 0.00 0.00 52 1011.7
20260507205952 13 259 11.3 14.5 0.00 0.00 0.00 53 1011.9
20260507205450 14 338 12.9 17.7 0.00 0.00 0.00 50 1011.8
20260507204946 14 303 14.5 16.1 0.00 0.00 0.00 52 1011.7
20260507204442 13 307 14.5 20.9 0.00 0.00 0.00 49 1012.1
20260507203940 13 281 17.7 25.7 0.00 0.00 0.00 47 1011.8
20260507203438 13 290 14.5 17.7 0.00 0.00 0.00 50 1011.8
20260507202934 13 307 9.7 11.3 0.00 0.00 0.00 47 1011.5
20260507202431 13 271 8.0 9.7 0.00 0.00 0.00 50 1011.7
20260507201926 14 210 6.4 8.0 0.00 0.00 0.00 51 1011.6
20260507201421 13 262 8.0 9.7 0.00 0.00 0.00 52 1011.6
20260507200919 15 275 11.3 14.5 0.00 0.00 0.00 53 1011.8
20260507200414 14 262 8.0 11.3 0.00 0.00 0.00 51 1011.7
20260507195910 14 259 14.5 20.9 0.00 0.00 0.00 52 1011.7
20260507195408 14 249 11.3 12.9 0.00 0.00 0.00 49 1011.8
20260507194905 14 266 9.7 12.9 0.00 0.00 0.00 50 1012.0
20260507194401 14 269 9.7 11.3 0.00 0.00 0.00 51 1011.9
20260507193857 14 276 14.5 17.7 0.00 0.00 0.00 49 1012.1
20260507193355 13 253 11.3 16.1 0.00 0.00 0.00 53 1011.9
20260507192851 13 299 6.4 9.7 0.00 0.00 0.00 52 1012.2
20260507192347 13 269 6.4 8.0 0.00 0.00 0.00 53 1012.2
20260507191844 13 272 11.3 12.9 0.00 0.00 0.00 51 1012.1
20260507191340 13 259 8.0 11.3 0.00 0.00 0.00 51 1012.0
20260507190837 13 248 4.8 8.0 0.00 0.00 0.00 53 1012.3
20260507190336 13 301 19.3 25.7 0.00 0.00 0.00 52 1012.2
20260507185834 13 282 8.0 9.7 0.00 0.00 0.00 51 1012.1
20260507185331 13 288 11.3 20.9 0.00 0.00 0.00 50 1012.1
20260507184828 13 280 6.4 8.0 0.00 0.00 0.00 53 1012.0
20260507184326 13 299 22.5 25.7 0.00 0.00 0.00 50 1012.2
20260507183822 12 269 12.9 16.1 0.00 0.00 0.00 51 1012.3
20260507183319 13 250 9.7 11.3 0.00 0.00 0.00 51 1012.2
20260507182817 13 265 8.0 12.9 0.00 0.00 0.00 51 1011.9
20260507182312 14 285 8.0 9.7 0.00 0.00 0.00 48 1012.0
20260507181809 12 274 4.8 8.0 0.00 0.00 0.00 52 1012.1
20260507181305 13 268 8.0 11.3 0.00 0.00 0.00 51 1012.3
20260507180802 13 276 8.0 9.7 0.00 0.00 0.00 56 1012.2
20260507180259 14 244 8.0 9.7 0.00 0.00 0.00 51 1012.3
20260507175754 13 253 17.7 25.7 0.00 0.00 0.00 52 1012.3
20260507175251 13 284 8.0 12.9 0.00 0.00 0.00 51 1012.3
20260507174748 12 260 9.7 9.7 0.00 0.00 0.00 53 1012.4
20260507174247 13 188 4.8 4.8 0.00 0.00 0.00 53 1012.6
20260507173744 13 236 11.3 14.5 0.00 0.00 0.00 54 1012.3
20260507173241 12 234 3.2 3.2 0.00 0.00 0.00 54 1012.7
20260507172737 12 288 6.4 9.7 0.00 0.00 0.00 51 1012.8
20260507172234 13 274 11.3 14.5 0.00 0.00 0.00 54 1012.7
20260507171734 12 185 8.0 11.3 0.00 0.00 0.00 54 1012.8
20260507171232 13 189 9.7 11.3 0.00 0.00 0.00 54 1012.8
20260507170729 13 274 6.4 8.0 0.00 0.00 0.00 52 1012.8
20260507170226 13 222 4.8 8.0 0.00 0.00 0.00 54 1012.7
20260507165721 13 168 4.8 4.8 0.00 0.00 0.00 54 1013.0
20260507165218 13 212 8.0 11.3 0.00 0.00 0.00 56 1012.9
20260507164714 12 275 17.7 20.9 0.00 0.00 0.00 51 1013.0
20260507164211 13 243 9.7 17.7 0.00 0.00 0.00 51 1012.9
20260507163708 12 195 11.3 12.9 0.00 0.00 0.00 53 1012.9
20260507163206 12 265 8.0 11.3 0.00 0.00 0.00 55 1013.1
20260507162702 12 176 4.8 8.0 0.00 0.00 0.00 54 1013.1
20260507162158 12 301 8.0 14.5 0.00 0.00 0.00 57 1012.9
20260507161654 12 257 16.1 20.9 0.00 0.00 0.00 50 1013.0
20260507161151 12 257 9.7 16.1 0.00 0.00 0.00 56 1012.8
20260507160647 12 260 11.3 12.9 0.00 0.00 0.00 50 1012.8
20260507160144 12 282 4.8 8.0 0.00 0.00 0.00 55 1012.8
20260507155639 12 296 9.7 11.3 0.00 0.00 0.00 53 1012.9
20260507155136 12 257 9.7 11.3 0.00 0.00 0.00 56 1012.9
20260507154633 11 290 11.3 16.1 0.00 0.00 0.00 54 1012.9
20260507154131 12 276 9.7 12.9 0.00 0.00 0.00 57 1012.9
20260507153627 12 270 12.9 22.5 0.00 0.00 0.00 57 1012.9
20260507153123 12 245 19.3 24.1 0.00 0.00 0.00 55 1013.0
20260507152620 11 169 9.7 14.5 0.00 0.00 0.00 58 1013.0
20260507152116 11 219 9.7 14.5 0.00 0.00 0.00 57 1013.0
20260507151612 11 189 8.0 11.3 0.00 0.00 0.00 57 1013.1
20260507151109 12 194 9.7 11.3 0.00 0.00 0.00 60 1012.9
20260507150606 11 234 11.3 20.9 0.00 0.00 0.00 57 1013.1
20260507145557 11 182 3.2 4.8 0.00 0.00 0.00 60 1013.3
20260507145056 11 207 8.0 9.7 0.00 0.00 0.00 63 1013.1
20260507144552 11 291 8.0 14.5 0.00 0.00 0.00 59 1013.2
20260507144050 11 264 6.4 9.7 0.00 0.00 0.00 60 1013.5
20260507143546 11 281 17.7 22.5 0.00 0.00 0.00 61 1013.3
20260507143045 11 253 9.7 14.5 0.00 0.00 0.00 58 1013.4
20260507142544 11 273 12.9 16.1 0.00 0.00 0.00 62 1013.3
20260507142042 11 250 14.5 20.9 0.00 0.00 0.00 63 1013.5
20260507141538 11 286 12.9 14.5 0.00 0.00 0.00 63 1013.3
20260507141035 11 289 14.5 20.9 0.00 0.00 0.00 64 1013.3
20260507140531 11 291 8.0 11.3 0.00 0.00 0.00 69 1013.6
20260507140029 11 258 4.8 8.0 0.00 0.00 0.00 71 1013.8
20260507135526 10 189 12.9 22.5 0.00 0.00 0.00 73 1013.6
20260507135023 10 181 6.4 11.3 0.00 0.00 0.00 73 1013.8
20260507134519 10 263 8.0 8.0 0.00 0.00 0.00 74 1013.9
20260507134015 10 244 4.8 9.7 0.00 0.00 0.00 75 1013.8
20260507133511 9 226 6.4 9.7 0.00 0.00 0.00 76 1013.8
20260507133010 9 281 6.4 11.3 0.00 0.00 0.00 78 1013.9
20260507132506 9 292 9.7 12.9 0.00 0.00 0.00 78 1013.9
20260507132002 8 267 6.4 8.0 0.00 0.00 0.00 79 1013.8
20260507131459 8 188 4.8 4.8 0.00 0.00 0.00 80 1013.9
20260507130956 8 173 3.2 3.2 0.00 0.00 0.00 81 1014.2
20260507130453 8 253 4.8 8.0 0.00 0.00 0.00 82 1014.1
20260507125952 8 274 4.8 4.8 0.00 0.00 0.00 83 1013.9
20260507125450 7 279 3.2 3.2 0.00 0.00 0.00 84 1013.8
20260507124947 7 210 3.2 3.2 0.00 0.00 0.00 85 1013.8
20260507124443 7 264 4.8 4.8 0.00 0.00 0.00 85 1013.7
20260507123941 7 245 3.2 3.2 0.00 0.00 0.00 86 1013.8
20260507123438 7 276 6.4 8.0 0.00 0.00 0.00 85 1013.7
20260507122935 7 174 1.6 1.6 0.00 0.00 0.00 86 1013.9
20260507122430 7 246 3.2 3.2 0.00 0.00 0.00 87 1013.8
20260507121926 7 160 0.0 1.6 0.00 0.00 0.00 88 1013.6
20260507121422 6 249 4.8 4.8 0.00 0.00 0.00 89 1013.7
20260507120919 6 266 8.0 9.7 0.00 0.00 0.00 91 1013.8
20260507120415 6 241 1.6 3.2 0.00 0.00 0.00 93 1013.9
20260507115911 5 201 1.6 1.6 0.00 0.00 0.00 94 1013.7
20260507115407 5 178 0.0 0.0 0.00 0.00 0.00 95 1013.6
20260507114903 5 179 0.0 0.0 0.00 0.00 0.00 95 1013.6
20260507114400 5 167 0.0 0.0 0.00 0.00 0.00 96 1013.7
20260507113857 4 162 0.0 0.0 0.00 0.00 0.00 97 1013.6
20260507113354 3 154 0.0 0.0 0.00 0.00 0.00 98 1013.6
20260507112852 3 151 0.0 0.0 0.00 0.00 0.00 98 1013.6
20260507112349 3 152 0.0 0.0 0.00 0.00 0.00 98 1013.5
20260507111847 3 148 0.0 0.0 0.00 0.00 0.00 98 1013.6
20260507111343 3 148 0.0 0.0 0.00 0.00 0.00 98 1013.5
20260507110839 3 139 0.0 0.0 0.00 0.00 0.00 99 1013.6
20260507110335 3 139 0.0 0.0 0.00 0.00 0.00 99 1013.5
20260507105833 3 139 0.0 0.0 0.00 0.00 0.00 99 1013.3
20260507105329 2 139 0.0 0.0 0.00 0.00 0.00 99 1013.6
20260507104826 2 139 0.0 0.0 0.00 0.00 0.00 99 1013.5
20260507104322 2 139 0.0 0.0 0.00 0.00 0.00 99 1013.6
20260507103818 2 139 0.0 0.0 0.00 0.00 0.00 99 1013.4
20260507103315 2 139 0.0 0.0 0.00 0.00 0.00 99 1013.4
20260507102812 2 139 0.0 0.0 0.00 0.00 0.00 99 1013.4
20260507102309 2 139 0.0 0.0 0.00 0.00 0.00 99 1013.4
20260507101805 2 139 0.0 0.0 0.00 0.00 0.00 99 1013.2
20260507101305 2 139 0.0 0.0 0.00 0.00 0.00 99 1013.4
20260507100802 2 139 0.0 0.0 0.00 0.00 0.00 99 1013.3
20260507100300 2 139 0.0 0.0 0.00 0.00 0.00 99 1013.3
20260507095758 2 138 0.0 0.0 0.00 0.00 0.00 99 1013.3
20260507095254 2 138 0.0 0.0 0.00 0.00 0.00 99 1013.2
20260507094751 2 138 0.0 0.0 0.00 0.00 0.00 99 1013.3
20260507094248 2 138 0.0 0.0 0.00 0.00 0.00 99 1013.3
20260507093745 2 138 0.0 0.0 0.00 0.00 0.00 99 1013.2
20260507093243 2 138 0.0 0.0 0.00 0.00 0.00 99 1013.3
20260507092741 2 138 0.0 0.0 0.00 0.00 0.00 99 1013.3
20260507092237 2 138 0.0 0.0 0.00 0.00 0.00 99 1013.3
20260507091734 2 138 0.0 0.0 0.00 0.00 0.00 99 1013.3
20260507091230 3 138 0.0 0.0 0.00 0.00 0.00 99 1013.3
20260507090725 3 138 0.0 0.0 0.00 0.00 0.00 99 1013.3
20260507090222 3 138 0.0 0.0 0.00 0.00 0.00 99 1013.4